Theta_e
354 355 354 355 354 354 354 353 352 352 352 353 353 353 353 353 353 352 352 353 353 353 354 353 353 352 352 352 352 352 352 351 351 350 349 349 352 352 349 346 346 345 345 346 347 348 349 349 348 347 347 346 344 344 345 346 346 345 344 344 345 344 343 342 340 338 338 338 338 338 339 339 339 339 340 337 336 336 337 340 341 341 342 343 343
355 355 355 355 355 355 354 353 352 352 353 353 353 354 353 353 353 353 353 353 353 353 354 352 352 352 352 353 353 353 353 353 352 352 350 349 350 352 350 346 346 346 345 345 346 348 350 350 349 348 347 347 346 345 345 346 346 346 345 344 344 344 345 345 344 342 340 339 338 337 337 338 338 338 339 339 338 338 337 338 340 340 340 342 343
356 356 355 355 355 355 354 353 353 352 352 352 353 354 353 353 353 352 352 353 352 353 352 351 350 351 352 353 353 352 352 352 352 351 350 350 350 351 352 348 346 346 346 346 346 347 350 349 348 348 347 347 347 346 345 346 346 346 346 346 345 344 344 345 345 344 343 341 339 338 338 338 338 338 338 339 339 339 339 338 339 339 339 340 341
358 357 356 356 356 355 354 353 354 353 351 352 354 354 354 354 353 353 352 352 352 350 350 349 348 349 350 351 352 352 352 352 351 351 350 351 350 350 352 351 348 347 346 346 346 347 348 348 348 348 348 348 348 348 346 346 346 346 346 346 346 345 344 344 344 345 345 344 342 340 339 338 338 338 338 338 338 339 339 339 339 339 339 339 340
359 358 356 356 356 356 355 353 354 354 353 352 354 354 353 352 353 353 352 351 351 348 348 346 345 347 348 348 350 351 351 351 350 350 351 351 350 350 351 351 350 349 347 346 346 347 347 348 348 348 348 348 349 349 347 346 346 346 346 346 346 346 345 343 343 343 344 345 345 343 341 339 338 338 338 337 337 338 338 339 339 339 340 340 339
359 358 358 356 356 356 355 355 354 354 354 353 354 353 352 352 352 352 351 350 348 346 345 343 342 343 343 343 346 348 350 350 349 349 350 350 350 351 350 351 352 351 349 348 347 347 347 348 349 349 348 348 348 348 348 348 347 347 347 347 346 346 345 344 343 342 343 344 345 345 344 342 340 338 337 337 336 337 337 338 338 338 339 339 339
356 357 357 357 356 355 355 356 355 353 355 354 354 354 353 353 352 351 349 347 345 343 343 341 341 341 341 341 342 344 346 348 349 350 350 351 351 351 351 350 351 351 352 351 348 348 347 348 350 349 347 346 346 346 347 348 348 348 348 347 346 346 345 346 345 344 344 344 344 345 345 344 343 341 340 338 337 336 336 337 337 337 338 338 338
354 354 356 358 357 356 356 356 354 354 355 354 352 353 353 352 351 348 345 344 342 341 341 341 341 341 341 341 341 342 344 345 348 349 350 351 350 350 351 351 351 351 351 351 350 350 349 347 348 348 346 345 345 345 346 347 348 348 348 348 347 347 346 345 346 346 345 345 344 344 345 345 345 345 343 341 339 337 336 336 336 337 337 337 337
353 353 355 357 357 356 356 356 355 354 353 352 350 350 349 348 347 345 344 343 341 340 340 341 341 342 341 340 341 342 342 343 345 347 349 350 350 350 350 351 352 351 351 351 350 350 350 348 347 347 346 346 346 345 346 347 348 348 347 347 347 347 346 346 347 347 347 347 346 346 345 345 345 346 345 344 342 341 339 337 336 336 336 336 336
353 354 354 355 356 355 355 355 354 351 350 349 348 347 346 344 345 344 344 343 341 340 342 342 342 343 342 340 341 342 342 343 344 345 346 347 349 350 350 351 351 351 350 350 350 350 350 350 347 346 346 345 346 346 346 347 348 348 347 347 347 347 348 348 347 347 347 348 347 346 345 345 345 346 346 345 344 343 341 340 338 337 336 336 336
353 355 354 355 355 355 354 352 350 348 347 347 346 345 345 345 344 343 344 345 343 343 343 343 343 342 342 341 342 344 344 343 344 344 344 346 348 350 350 350 350 350 350 350 350 350 350 350 349 349 349 347 346 346 347 347 348 348 348 348 348 348 348 348 348 347 347 347 346 345 344 344 344 345 345 345 345 344 342 341 341 340 339 338 337
354 355 355 355 354 352 351 349 347 346 346 345 344 344 344 344 343 344 345 345 344 344 344 344 343 342 342 342 343 344 344 344 343 342 343 344 347 349 349 349 349 349 349 349 348 348 349 350 350 350 351 350 348 346 347 348 348 348 348 348 348 349 348 347 347 346 346 346 344 343 344 343 344 344 345 345 345 345 343 343 342 342 341 340 339
354 354 354 354 352 350 349 347 346 346 346 345 345 344 343 343 344 345 345 344 344 343 344 344 343 343 342 342 342 343 344 343 342 341 341 342 343 346 345 345 347 346 347 347 347 346 347 348 349 349 349 350 350 348 347 347 346 347 347 347 348 347 347 346 346 346 346 346 345 345 344 345 344 345 346 345 345 344 344 344 343 343 343 342 341
355 354 353 352 350 349 348 346 347 346 346 346 345 345 343 343 344 344 344 344 343 343 343 343 342 342 342 342 342 342 343 342 340 339 340 340 340 341 341 341 341 342 343 344 344 344 344 346 346 347 348 348 349 348 348 347 346 347 347 346 346 346 346 345 346 346 346 346 346 346 345 345 345 345 346 345 345 344 344 344 344 343 343 342 343
356 355 352 351 349 348 348 347 347 347 346 344 344 344 343 343 343 343 343 342 342 342 343 343 342 342 342 342 341 341 344 343 340 339 339 339 338 338 338 338 339 339 339 340 340 341 342 343 344 344 345 345 346 346 347 346 346 345 344 344 344 344 344 345 346 346 346 346 346 345 345 346 346 346 346 346 346 345 344 344 344 344 342 341 342
355 353 351 350 349 348 348 348 347 347 344 341 343 343 343 343 343 343 343 342 341 341 341 342 342 343 342 341 339 340 342 341 339 340 338 337 337 337 337 336 337 338 337 337 338 339 340 342 342 342 342 342 343 343 344 345 344 343 342 343 342 342 343 343 345 346 346 347 346 345 346 346 346 346 346 346 346 346 345 345 345 345 344 343 341
354 352 351 350 349 349 348 348 347 345 341 340 342 343 343 343 343 343 342 342 341 339 340 341 341 342 342 342 341 340 340 338 340 341 338 337 337 336 335 334 335 336 336 336 337 338 338 339 339 340 340 340 341 341 342 342 341 342 341 339 337 338 340 341 343 344 345 346 347 346 346 346 346 346 346 346 346 346 346 346 345 345 346 345 344
353 352 351 351 350 349 349 347 345 342 340 341 342 342 343 343 342 343 342 342 341 339 340 340 340 341 342 342 341 341 340 339 339 340 339 337 337 335 332 331 332 333 334 333 334 335 335 336 336 337 337 337 337 337 338 336 337 338 333 327 327 330 333 336 340 343 344 345 345 346 347 347 347 347 346 346 346 347 347 347 346 346 346 346 345
353 352 351 351 350 349 348 345 342 341 342 342 343 342 343 343 342 342 342 342 341 340 339 339 340 340 340 340 340 339 340 340 339 339 339 338 336 334 331 330 330 330 330 331 331 332 334 333 333 334 333 333 333 333 333 332 333 335 327 318 320 322 323 327 331 337 340 343 344 345 345 346 347 347 347 347 347 347 348 348 347 346 346 346 346
353 352 351 349 348 347 346 342 340 341 342 342 343 342 343 343 343 342 341 341 341 340 339 338 338 338 338 338 338 338 339 338 338 338 338 338 336 335 332 330 329 327 327 328 328 329 332 331 330 331 330 331 331 330 331 329 330 332 325 317 318 319 318 320 321 325 330 334 338 341 343 345 345 346 347 347 347 348 348 348 347 347 347 347 346
353 352 350 348 346 346 343 341 341 343 343 342 343 343 343 343 343 342 341 341 340 340 340 339 337 337 338 338 337 337 337 336 337 337 337 337 335 334 333 332 330 327 326 326 326 326 328 329 328 328 328 329 330 329 329 328 329 329 322 317 318 319 319 319 318 319 320 323 327 330 335 339 342 344 345 346 347 347 348 348 347 347 347 347 347
352 351 349 347 345 343 342 341 342 343 343 343 342 342 343 343 343 342 341 341 340 340 340 339 338 338 338 337 336 336 336 336 336 335 336 336 335 334 333 333 331 329 327 325 326 325 325 327 327 326 327 329 329 329 328 329 329 325 318 317 318 319 319 320 320 320 319 319 320 322 324 328 332 336 340 343 345 347 347 347 348 348 348 347 348
350 349 348 346 343 341 340 341 342 343 343 343 343 342 341 341 342 342 341 341 340 340 340 339 338 338 337 337 337 336 337 337 335 335 335 335 334 334 333 332 331 331 329 328 326 326 325 326 327 326 327 328 329 329 328 329 330 323 317 317 317 317 319 319 321 321 321 320 320 320 321 322 323 326 329 334 338 342 345 346 347 348 347 347 347
349 347 346 344 342 342 341 341 342 343 343 342 342 340 339 340 341 342 341 341 340 340 340 339 338 338 337 337 337 337 336 336 336 335 334 334 334 334 333 332 332 331 331 330 329 327 327 327 328 327 328 329 330 330 330 331 330 325 319 318 316 316 317 317 318 320 321 322 322 322 322 322 322 323 323 325 327 332 336 341 344 347 348 347 347
348 346 345 343 343 343 342 342 343 343 342 341 340 340 339 339 341 342 341 340 340 340 339 339 338 338 338 337 337 337 336 336 336 335 334 335 335 334 332 332 333 332 331 331 330 329 328 328 328 328 328 329 330 332 332 331 331 328 322 318 318 317 316 316 317 317 319 320 321 322 323 324 324 324 324 324 324 325 327 331 336 341 345 347 347
348 346 344 343 343 343 343 343 343 343 342 341 341 341 341 340 341 342 341 340 340 339 339 338 338 338 337 337 337 337 336 335 336 336 334 334 334 334 333 333 332 332 332 332 331 330 329 328 328 329 329 330 330 332 332 331 332 330 323 321 324 322 316 316 317 316 317 318 318 319 320 321 322 323 324 325 325 325 325 326 327 331 337 342 345
348 346 344 343 342 343 344 343 343 343 342 342 342 342 342 342 342 342 341 340 340 339 339 338 338 338 337 338 337 336 336 336 335 335 335 334 334 333 334 334 332 331 331 331 331 331 330 328 328 329 329 330 330 331 332 331 332 330 326 326 329 327 320 316 316 317 317 317 318 318 318 319 319 319 320 321 323 325 326 326 326 326 328 333 339
348 347 345 344 343 344 344 343 343 343 343 343 343 342 342 343 342 342 341 340 340 340 339 339 338 337 337 337 337 336 336 336 335 335 335 335 334 334 334 334 333 333 332 331 330 330 329 329 329 329 330 331 331 331 331 332 331 330 329 330 330 329 326 320 316 316 317 317 318 318 318 319 318 317 318 318 319 321 323 325 326 326 326 327 331
349 347 346 344 343 344 344 342 343 343 343 343 342 342 343 343 342 342 341 340 340 340 339 339 338 337 337 337 337 336 336 337 337 336 336 336 336 335 335 334 333 333 333 332 331 329 329 328 328 329 330 331 332 331 332 332 331 330 331 331 330 330 329 324 318 316 317 317 317 318 318 319 319 318 317 317 318 319 320 322 325 326 326 326 327
349 347 346 345 344 344 343 342 342 343 342 342 341 342 342 342 341 342 341 339 340 339 338 338 337 337 337 336 336 336 336 336 336 336 337 337 336 336 336 335 334 333 333 333 332 330 330 329 329 329 330 331 331 332 332 331 331 331 332 332 331 331 329 323 319 317 317 317 317 317 318 318 319 318 317 317 317 318 319 320 322 324 326 327 327
348 346 345 344 344 344 343 342 342 342 342 341 341 342 342 341 340 340 340 339 339 339 338 337 337 337 337 336 336 336 336 336 336 336 339 339 339 337 336 336 335 334 333 333 332 331 330 330 331 331 331 332 332 332 332 332 332 331 332 332 333 332 329 324 321 320 319 318 317 318 318 318 319 318 317 316 316 317 317 318 320 322 324 326 327
347 346 344 343 343 344 343 341 341 341 341 340 340 341 341 340 340 338 339 339 339 339 338 337 336 336 337 336 336 336 336 336 336 336 337 338 339 338 336 336 335 335 334 333 333 333 331 330 330 331 332 332 332 332 331 332 331 331 332 332 332 332 331 329 327 325 323 321 320 319 319 318 319 319 317 316 316 316 317 317 318 319 321 323 326
346 345 343 342 343 344 342 340 340 340 341 340 340 340 340 340 340 339 338 339 339 338 337 337 337 336 336 336 336 336 337 337 338 337 335 334 334 334 333 333 332 333 333 333 333 334 332 330 330 330 331 331 331 331 331 332 331 330 330 330 331 331 332 331 330 328 327 325 323 322 320 319 320 320 319 317 316 316 316 317 317 317 318 320 322
344 343 343 343 343 343 342 340 340 340 341 341 340 339 339 339 339 339 338 338 338 338 338 338 337 336 336 336 336 336 336 337 338 337 335 333 332 332 331 331 331 330 331 331 332 333 333 331 330 330 330 330 330 331 330 331 331 330 329 329 329 330 331 331 331 330 329 327 326 324 322 322 321 320 320 318 316 316 316 317 317 317 317 317 319
341 339 341 343 343 344 342 340 340 341 341 342 340 339 340 340 339 338 337 338 338 338 338 338 337 337 336 336 336 336 335 336 336 336 335 333 333 332 331 331 331 331 330 331 332 332 333 332 330 329 329 329 329 329 330 330 329 329 329 328 328 328 329 330 330 330 330 329 328 327 326 325 323 322 321 320 317 316 317 317 317 317 317 317 317
340 337 337 340 343 345 343 340 341 341 341 342 340 339 340 340 340 338 339 339 339 338 338 337 337 337 337 337 336 335 335 335 336 335 335 334 333 333 332 332 331 331 331 330 331 332 332 332 331 330 329 329 328 328 329 329 328 328 328 328 327 327 328 329 329 329 329 329 329 328 328 328 327 325 324 322 320 318 317 317 317 317 317 317 317
335 333 333 335 339 342 341 340 340 340 340 341 340 340 340 340 340 339 339 340 339 339 338 338 337 337 337 337 336 336 336 336 336 336 335 334 333 333 332 332 331 331 330 330 330 330 331 331 331 331 329 329 328 328 328 328 327 327 327 326 326 326 327 327 327 327 328 328 328 329 329 329 329 329 327 326 324 322 320 319 318 318 318 318 318
329 328 330 331 334 335 335 338 340 339 340 340 340 340 340 340 340 340 339 339 340 339 339 338 337 337 337 337 337 336 336 336 337 336 335 334 333 333 333 332 331 331 331 330 330 330 330 330 330 330 330 329 328 328 328 328 327 327 327 327 326 326 327 327 327 327 327 328 328 329 329 329 329 329 328 327 326 325 324 323 322 320 320 320 320
332 331 331 330 330 330 332 336 338 339 340 341 341 341 340 340 340 341 340 340 339 340 339 338 337 336 336 337 337 336 336 336 336 337 336 335 334 333 333 333 332 331 331 330 329 328 329 328 328 329 329 329 328 328 328 327 327 327 327 327 327 326 326 327 327 326 327 327 327 327 327 327 327 327 327 326 326 326 326 326 325 324 322 321 321
335 335 334 333 333 334 335 336 336 337 339 341 341 340 340 339 340 341 341 341 339 339 338 338 337 336 335 336 336 336 336 336 336 336 336 336 335 334 333 332 332 331 331 331 329 328 328 328 328 328 328 329 329 328 328 327 327 327 327 326 327 327 327 327 327 327 327 327 327 327 326 326 326 326 326 326 326 326 326 327 327 326 325 324 323
335 336 336 337 337 337 336 335 334 336 338 340 339 338 340 341 341 341 341 340 339 338 337 337 337 336 335 335 335 334 334 335 336 335 334 334 334 334 333 333 332 332 332 332 330 329 328 328 328 328 328 328 328 328 327 327 327 327 326 326 327 327 327 327 327 327 327 327 327 327 327 326 325 325 325 325 326 326 326 326 327 327 326 325 324
336 337 337 339 340 340 336 333 333 335 338 340 338 337 337 338 339 341 340 339 339 338 337 337 336 336 335 335 335 334 334 334 333 331 330 330 331 331 331 331 332 332 332 333 332 330 328 328 328 328 328 328 327 327 327 327 327 326 326 326 326 326 326 326 327 326 326 326 326 327 327 327 326 326 325 325 325 325 326 326 327 327 327 326 323
338 338 338 340 342 341 339 337 337 337 338 339 338 336 333 331 333 337 338 338 339 338 337 337 337 336 335 335 335 335 335 334 332 329 328 329 328 328 329 329 330 331 332 332 332 330 328 327 327 327 327 327 327 327 327 327 326 326 326 326 326 327 326 326 327 326 326 326 326 326 327 327 327 327 326 325 325 325 325 326 326 326 326 325 323
339 340 340 341 342 342 341 340 340 340 339 339 339 336 330 328 331 333 335 336 338 338 337 336 336 336 335 335 334 333 334 335 334 332 332 332 331 329 328 327 328 329 330 330 330 329 329 328 327 327 327 327 327 327 327 327 326 326 326 327 327 327 326 326 326 326 325 326 326 326 327 327 327 326 326 325 325 325 325 325 325 325 325 324 323
340 340 337 337 341 343 341 341 340 341 341 340 339 334 329 328 332 333 332 335 336 337 337 337 336 336 336 335 334 334 334 334 335 335 334 335 335 333 331 330 329 329 329 329 328 328 328 328 328 327 327 328 327 327 328 328 327 327 327 328 328 326 325 325 325 325 326 326 326 326 326 325 325 324 324 324 324 324 325 325 324 324 324 323 322
343 341 335 336 342 342 340 341 341 341 340 339 336 332 327 327 332 334 333 334 336 337 337 337 337 336 336 336 336 335 334 334 336 337 338 338 337 337 336 335 333 332 333 332 330 329 329 329 329 328 328 328 328 329 329 328 326 326 327 327 326 325 325 325 325 325 325 325 325 325 325 325 324 323 324 324 324 324 325 325 324 323 323 323 322
344 343 340 341 344 343 341 342 342 342 341 339 335 331 326 325 331 334 334 334 336 337 337 338 337 337 337 336 336 335 336 337 337 338 339 339 338 337 337 336 335 335 334 332 331 330 330 329 329 329 329 329 329 328 328 326 325 325 325 324 324 324 324 324 324 324 325 324 324 325 325 325 324 323 323 323 323 324 325 324 323 323 323 322 321
343 343 343 342 343 343 343 343 342 342 341 339 336 332 327 326 331 335 334 334 336 337 337 337 337 337 337 338 338 338 338 339 339 337 337 336 335 334 335 335 334 333 331 329 328 328 329 328 326 325 326 326 326 325 325 324 323 323 323 323 323 323 323 323 324 324 324 323 322 323 324 323 322 322 322 322 323 324 324 323 322 323 323 322 322
341 343 342 342 343 343 343 343 342 343 342 341 339 336 331 329 333 335 334 335 337 339 338 338 338 338 339 339 340 339 336 337 337 336 334 332 331 332 334 333 332 330 329 329 329 328 328 327 324 324 323 323 323 323 323 323 322 321 321 322 322 323 323 323 323 323 322 322 321 321 322 322 322 321 321 322 322 323 323 322 322 323 323 323 322
342 342 341 342 344 343 342 342 342 342 342 342 341 339 336 335 335 335 335 338 340 339 339 338 338 338 338 338 337 335 333 334 333 332 331 330 330 331 333 333 332 331 330 330 330 329 328 327 325 325 324 324 323 323 323 323 323 321 321 322 323 323 323 322 322 322 322 321 321 321 322 322 322 321 322 322 323 323 322 322 323 323 323 323 322
341 342 341 341 343 343 342 342 343 342 342 341 340 339 338 337 336 335 336 339 339 338 338 338 337 337 338 337 336 334 333 333 330 329 329 330 330 331 332 332 331 331 331 330 329 328 327 327 326 325 325 325 325 325 324 324 323 323 323 323 323 323 322 321 321 321 320 320 320 320 321 321 321 321 322 323 323 322 322 323 323 323 323 323 322
Wind_Speed
4 3 3 3 4 4 5 5 5 6 6 6 6 5 5 5 5 6 7 7 8 8 8 7 7 6 6 6 6 6 6 6 6 5 5 5 4 6 7 6 5 4 4 5 5 6 7 8 9 11 13 14 16 17 16 16 16 16 16 15 15 15 15 15 15 14 14 14 13 13 12 12 11 11 11 12 11 11 11 10 10 10 10 10 9
3 3 3 3 4 5 5 5 5 5 5 6 6 5 5 5 5 6 7 8 8 8 8 8 8 7 7 7 6 6 6 6 6 6 6 5 4 5 7 6 5 5 4 4 5 6 7 8 9 10 12 13 15 15 17 18 18 18 18 18 17 17 16 16 16 16 16 16 15 14 14 13 13 13 13 13 13 12 12 11 11 11 11 11 10
3 3 4 4 5 5 6 6 6 6 4 5 6 6 6 6 6 7 7 8 7 7 7 8 8 7 7 7 7 6 6 5 6 6 6 6 5 5 6 6 5 5 4 4 4 6 7 8 8 10 11 13 14 14 16 18 20 20 20 19 18 18 17 17 17 17 17 17 17 16 15 15 15 14 14 14 14 14 13 13 12 12 12 12 12
4 4 4 5 5 5 6 6 6 7 5 5 6 6 7 7 7 8 7 7 7 7 7 7 8 8 7 7 6 6 6 6 5 6 6 6 6 5 6 6 5 5 5 5 4 5 7 8 9 9 9 11 13 13 15 17 20 21 21 20 19 19 20 19 18 18 18 17 17 17 17 16 16 16 16 15 15 15 15 14 14 13 13 13 13
4 5 5 5 6 6 6 6 5 6 6 6 7 6 7 8 7 7 6 7 7 7 6 7 7 7 7 7 6 6 6 6 6 5 5 6 6 6 6 6 5 5 5 6 5 5 5 6 7 7 7 10 11 12 15 16 18 20 21 22 21 21 22 21 20 20 19 18 18 18 17 17 17 17 17 16 16 16 16 16 15 15 14 14 14
5 5 5 6 6 6 6 5 5 5 4 6 6 6 8 7 6 5 5 6 7 6 7 8 8 8 8 8 7 6 6 6 6 5 5 5 5 6 6 6 6 5 6 7 7 6 6 6 7 7 8 9 10 11 14 17 18 19 19 21 22 23 23 22 22 21 20 20 18 18 18 18 18 18 18 18 17 17 17 17 16 16 16 15 15
6 5 5 5 6 6 5 5 5 4 4 5 5 5 6 5 5 5 5 6 6 7 7 8 8 8 8 8 7 7 7 6 6 5 5 5 5 6 6 6 6 6 7 7 7 7 7 7 8 8 9 10 11 12 14 16 18 19 18 19 20 22 22 22 21 21 21 21 20 19 18 19 18 18 19 19 19 18 18 18 18 17 17 17 16
6 6 6 5 5 5 5 5 4 3 4 5 5 4 4 4 4 4 6 6 7 8 8 8 8 7 7 7 7 7 7 7 6 5 5 4 5 5 5 6 6 6 7 7 6 7 7 8 8 9 9 10 12 14 14 14 15 17 18 18 19 20 21 21 20 19 20 20 20 20 20 20 19 19 19 20 20 20 19 19 19 19 18 18 18
7 6 6 5 6 5 4 4 3 3 3 4 4 3 4 4 4 4 5 6 7 7 7 7 7 7 7 6 6 6 7 6 6 5 5 5 5 4 5 5 5 6 6 6 6 7 6 7 8 9 9 10 11 12 12 13 13 14 16 17 19 19 18 18 18 17 17 17 18 19 20 20 20 20 21 21 21 21 21 20 20 20 20 19 19
6 6 6 6 5 5 3 3 3 3 3 3 4 4 4 4 4 4 4 5 6 6 7 7 7 7 6 6 5 6 6 6 6 5 5 4 3 3 3 3 4 4 5 5 6 6 5 6 7 8 9 10 11 11 11 12 12 13 14 15 18 18 16 15 14 13 13 13 15 17 19 21 21 21 21 22 22 22 22 22 21 21 20 21 20
6 6 6 6 5 4 3 3 2 2 3 4 4 4 4 4 5 4 4 4 5 6 6 7 7 6 6 5 4 5 5 5 5 4 4 3 2 2 2 2 2 3 3 4 4 4 5 5 4 5 7 9 10 11 11 12 12 12 13 14 15 14 12 11 11 11 12 13 16 18 20 21 22 22 22 23 23 23 23 24 23 22 21 21 21
7 7 6 6 5 4 3 2 1 2 3 4 4 5 5 4 4 4 4 5 5 5 5 6 6 5 4 4 3 3 3 2 2 2 1 1 1 1 1 1 1 2 1 2 2 2 3 3 3 4 5 6 7 8 10 11 12 13 13 13 12 11 9 8 9 11 13 16 18 20 20 21 22 23 24 24 23 23 23 24 24 24 23 23 22
8 7 7 6 5 4 2 1 2 2 2 3 4 5 4 3 3 4 4 4 4 3 3 5 5 3 3 2 1 2 2 2 0 1 1 1 1 1 1 1 1 1 1 1 1 2 2 2 2 3 3 4 5 6 6 8 9 10 12 12 10 10 10 9 11 12 13 16 17 19 20 21 22 23 24 25 25 25 24 24 25 25 25 25 24
8 8 7 6 5 4 3 2 3 2 2 3 4 4 3 2 3 4 3 2 3 3 4 4 4 4 3 2 2 3 3 1 0 1 2 2 2 2 2 1 2 1 1 0 0 0 1 1 1 2 2 2 3 4 5 5 5 6 8 8 7 9 11 11 13 13 13 15 15 18 20 22 23 23 24 25 26 26 26 25 25 25 26 26 25
8 8 7 7 6 5 4 3 3 2 2 3 3 3 2 2 3 3 2 1 1 2 4 5 5 5 3 2 0 1 3 2 1 2 2 2 3 4 3 3 3 2 2 2 2 2 2 2 2 2 3 3 2 2 3 3 5 5 6 6 5 7 9 9 10 11 13 14 16 18 19 20 21 23 24 25 25 26 27 28 27 26 26 26 26
8 7 7 7 7 6 4 3 3 2 2 3 3 3 3 3 2 2 2 2 1 1 3 5 6 5 3 2 2 1 1 1 2 1 1 1 3 5 5 4 4 3 3 3 3 3 3 3 3 3 3 3 3 3 2 3 5 5 4 4 3 4 7 7 7 9 10 13 15 17 18 19 20 22 23 24 25 26 27 28 28 27 27 27 27
8 8 7 7 7 6 5 4 3 3 2 3 2 2 2 2 2 1 1 3 2 2 2 3 4 4 4 3 2 1 2 3 3 1 1 2 3 5 6 4 5 4 3 4 3 3 3 3 4 3 3 3 4 4 3 4 5 5 5 5 3 3 6 7 7 7 8 10 13 15 17 18 19 21 22 22 24 25 26 27 28 28 28 29 28
9 8 7 7 7 6 5 4 4 3 3 3 2 2 2 2 2 1 1 1 2 2 1 1 2 3 4 4 3 3 4 5 3 1 2 3 3 5 6 5 5 4 4 4 3 3 3 4 4 4 4 4 5 5 5 6 6 6 7 6 4 3 5 7 8 8 8 9 11 13 15 17 18 20 21 22 22 23 25 26 28 28 29 29 30
8 8 8 8 7 7 6 5 5 4 4 3 2 2 2 2 2 1 1 1 0 1 1 1 1 2 3 4 4 4 5 5 4 2 1 2 2 4 6 5 4 5 4 4 4 4 4 4 5 5 6 6 6 6 6 6 7 6 8 8 5 4 4 5 7 9 10 11 12 13 14 16 17 18 19 21 21 22 24 25 26 27 28 29 30
8 9 9 9 8 8 8 6 6 6 5 4 3 2 2 2 2 2 2 2 1 1 1 2 2 2 2 2 3 4 4 4 4 4 2 0 1 3 4 3 3 5 5 4 4 5 5 4 5 5 5 6 6 6 6 6 6 6 8 9 7 7 6 6 6 8 10 12 13 14 15 16 17 17 17 19 21 22 24 25 25 26 27 29 29
10 10 10 10 10 9 8 8 7 7 6 5 4 3 3 3 3 3 3 2 2 1 1 1 2 2 1 1 1 1 2 2 2 3 3 2 0 2 2 1 1 3 3 3 4 4 4 4 3 3 4 4 5 5 5 5 6 6 9 10 9 9 8 8 8 8 9 11 13 14 16 17 18 18 18 19 19 20 23 24 25 25 25 27 28
11 11 11 11 10 9 9 8 8 7 6 5 4 4 4 4 4 4 3 3 3 2 2 1 1 1 0 0 1 1 1 1 2 2 2 2 3 2 1 1 1 1 2 1 2 3 2 2 1 1 2 3 4 5 5 5 4 6 9 10 10 10 10 9 9 9 9 10 11 13 14 16 18 19 20 21 21 21 21 22 23 24 25 25 27
10 11 12 11 10 9 9 8 8 8 7 6 4 4 4 5 5 5 4 4 4 3 3 2 2 1 1 1 1 2 1 1 2 2 3 3 3 4 4 3 3 2 2 1 3 4 3 3 2 1 0 1 2 4 5 5 4 8 10 10 10 10 10 10 10 9 9 9 10 11 12 14 16 18 19 21 22 23 22 22 21 21 24 26 28
11 11 12 12 11 10 9 9 9 8 7 6 5 5 5 5 5 6 5 5 5 4 4 4 3 3 2 3 3 2 2 2 1 1 3 4 4 5 5 4 4 4 2 2 5 6 5 5 4 3 2 2 1 3 5 5 5 9 10 9 9 9 9 10 10 10 10 10 10 10 11 11 13 15 17 19 20 22 23 24 23 21 22 24 27
12 12 12 12 11 10 9 9 9 9 8 8 7 6 6 5 6 6 6 6 5 5 4 4 4 3 3 3 3 3 3 3 3 3 3 3 4 5 6 5 6 6 4 5 5 6 7 7 6 4 4 4 3 3 5 5 6 9 10 9 9 9 8 8 9 9 10 10 10 10 11 12 12 13 15 17 18 20 21 23 25 25 24 23 24
13 13 12 11 11 10 10 10 10 10 10 9 8 8 7 6 6 6 6 6 5 5 4 4 4 4 4 4 4 5 4 4 4 4 4 4 5 5 6 6 8 8 7 6 6 7 7 7 7 6 6 5 5 5 6 6 7 9 10 9 8 9 8 7 8 9 9 9 9 9 10 11 12 13 14 15 16 18 19 21 23 25 27 27 26
13 13 12 11 11 10 10 10 10 11 10 10 9 8 8 7 6 6 6 5 5 5 5 5 5 5 5 5 5 6 6 5 5 5 5 5 5 6 6 6 6 7 7 6 7 8 8 7 7 8 7 7 7 7 8 8 8 10 12 9 7 9 10 8 7 8 9 9 9 10 10 11 12 12 14 15 16 17 18 19 20 23 26 28 29
12 12 11 11 11 10 10 10 10 11 10 10 9 8 8 8 7 6 6 5 5 5 5 5 5 6 6 7 7 7 7 6 6 6 6 5 5 6 6 6 6 6 6 6 7 7 7 8 8 8 8 9 9 9 10 10 9 11 11 9 8 10 12 11 10 9 9 10 10 11 12 13 13 13 13 14 15 16 17 18 19 20 23 26 28
11 11 12 12 11 10 10 10 10 10 10 10 9 8 8 8 8 7 7 6 6 6 6 6 6 6 7 8 8 8 7 7 7 7 6 6 6 7 7 8 8 7 5 5 7 8 9 9 10 9 8 10 11 11 12 11 12 13 12 10 10 10 12 15 14 12 12 12 12 13 14 15 15 14 14 14 14 16 17 18 18 19 21 23 26
11 11 11 11 11 11 10 10 10 10 10 10 9 9 8 8 8 8 8 7 7 7 7 7 7 7 8 8 9 9 8 8 8 7 7 7 7 8 8 8 9 9 8 7 7 10 12 11 11 11 11 11 12 12 13 12 13 15 13 11 12 11 14 18 18 17 16 15 14 15 15 16 17 16 15 14 14 15 16 17 18 19 20 22 24
12 12 11 11 11 11 11 11 11 10 10 10 10 9 9 8 8 8 8 7 7 7 7 7 7 7 8 9 9 10 9 9 9 8 7 7 7 8 8 9 9 11 11 11 8 9 12 13 13 13 13 14 13 13 13 13 13 14 13 13 13 14 16 18 18 18 18 18 17 17 16 17 18 17 15 14 14 15 15 16 17 19 20 21 23
13 12 12 12 12 12 12 12 12 11 11 11 10 9 9 9 8 8 7 7 7 7 7 7 7 7 8 9 10 10 10 10 9 9 8 8 8 8 8 9 10 10 12 12 11 11 13 14 14 14 14 14 14 13 13 13 13 13 13 14 15 16 16 15 16 18 19 20 20 19 19 20 19 18 16 15 15 15 15 15 16 17 19 21 23
14 14 14 14 14 13 13 12 12 12 11 11 10 10 10 9 9 8 8 8 8 8 7 7 8 8 8 9 10 11 11 11 11 11 10 9 9 9 9 9 10 10 10 12 12 13 14 14 14 15 14 14 15 14 13 14 14 13 13 14 16 16 16 15 15 17 18 20 22 22 22 22 22 20 17 17 17 16 16 16 16 16 17 19 21
16 16 15 15 15 15 14 13 13 12 12 12 11 10 11 10 10 10 9 9 10 9 9 9 9 9 10 11 11 10 11 11 11 11 11 10 10 10 9 9 11 11 10 12 13 13 14 13 13 14 14 14 15 15 14 14 14 14 14 15 16 15 15 16 16 16 17 19 22 24 25 24 24 21 19 19 19 18 17 17 17 18 18 18 19
19 19 18 17 16 16 15 14 14 14 13 13 12 12 12 12 11 11 11 11 11 11 11 11 12 11 12 12 12 11 11 11 12 11 11 10 9 9 9 9 11 12 11 12 13 14 15 14 13 14 14 14 16 16 15 15 14 14 15 16 16 15 15 16 17 18 18 20 22 25 26 26 24 22 20 20 21 20 20 19 19 19 19 20 20
20 20 19 18 17 17 16 15 15 15 15 14 14 13 13 13 13 13 13 12 12 13 13 13 14 14 13 14 13 11 11 11 12 11 11 10 10 9 9 9 11 12 12 12 13 14 15 15 14 15 14 14 16 16 16 16 15 15 15 16 16 16 17 17 17 18 19 21 23 25 26 25 23 22 22 22 23 24 23 21 21 20 20 21 22
21 21 21 20 20 20 19 18 17 17 16 15 15 15 14 14 14 15 14 14 14 14 15 15 15 15 15 15 14 12 12 12 12 12 11 11 11 10 10 10 11 12 12 12 13 14 16 16 16 16 14 14 15 15 15 16 16 16 15 16 16 17 17 17 18 18 19 20 21 22 23 23 23 23 23 23 26 27 26 24 24 23 22 23 23
26 25 24 23 23 24 23 21 18 17 17 17 16 16 16 15 15 15 15 15 15 15 16 16 15 15 15 15 15 14 13 13 13 13 13 12 12 12 12 12 12 13 13 14 14 14 16 17 17 16 15 14 15 14 14 15 16 16 16 16 17 17 17 17 18 18 19 19 20 20 21 22 23 23 24 26 28 29 28 27 27 26 25 25 23
29 27 25 24 25 26 25 24 21 18 17 18 18 17 17 16 16 16 16 16 16 16 16 16 15 15 16 16 16 15 15 15 15 15 14 14 14 13 13 13 13 14 14 15 15 15 16 17 17 17 15 14 14 15 14 15 16 16 16 16 17 17 17 18 19 19 19 20 21 22 22 23 24 24 26 27 28 28 29 29 29 28 28 26 23
27 26 24 24 24 24 24 24 23 21 18 18 18 18 18 18 17 17 16 16 16 16 16 16 15 15 15 16 16 16 16 16 16 16 15 14 14 13 14 14 14 15 15 15 16 16 16 17 17 16 15 15 15 15 15 15 16 17 16 16 17 18 19 19 19 19 19 20 21 22 23 23 24 25 25 26 26 27 29 29 30 31 29 25 21
28 25 23 22 22 22 24 25 25 24 20 19 19 20 19 18 17 16 17 16 16 16 16 16 15 15 16 16 16 16 17 17 18 19 18 17 16 15 15 14 15 16 16 15 16 16 16 17 16 16 16 15 15 16 16 16 17 18 17 17 18 20 20 21 21 21 20 21 22 22 23 23 24 25 26 26 26 26 27 28 29 29 26 22 23
28 26 24 21 20 21 24 26 26 25 22 20 21 22 21 20 17 15 15 15 15 16 16 16 16 16 16 16 16 16 18 20 21 22 22 21 20 20 19 19 18 18 17 16 16 16 17 17 17 16 16 16 17 17 17 18 18 19 18 18 19 20 21 21 21 21 20 20 22 22 22 22 24 26 26 26 27 27 27 27 27 27 26 27 31
28 27 25 22 20 20 21 22 24 24 23 21 22 24 25 24 21 17 15 15 15 16 16 16 16 16 16 16 15 15 17 20 21 21 21 21 21 22 22 22 21 21 19 18 17 17 18 18 18 17 17 18 18 18 19 19 19 18 18 19 19 20 20 19 19 20 19 19 21 24 25 24 24 27 28 27 26 26 27 28 29 30 31 34 35
29 26 24 23 21 20 19 20 21 21 22 21 22 24 24 23 22 19 17 16 16 16 16 16 16 16 16 16 15 15 16 17 18 18 18 19 21 23 23 21 20 20 21 21 20 19 19 18 18 18 18 19 20 20 19 19 19 19 19 19 19 19 21 20 20 22 21 20 22 25 27 25 25 28 30 29 27 27 28 30 32 32 33 35 35
30 28 28 26 22 21 20 20 20 18 17 18 20 22 22 22 20 19 19 19 17 17 17 16 16 17 18 18 17 16 16 16 17 18 17 17 19 21 21 19 18 18 20 22 22 21 21 20 19 20 20 20 21 20 19 18 19 19 19 18 18 19 22 22 23 24 24 22 23 25 27 27 25 27 30 29 28 29 30 31 33 33 33 34 35
27 27 29 25 21 22 22 20 18 17 16 17 19 20 20 22 22 21 21 21 19 18 18 17 18 18 19 19 18 18 18 17 16 16 15 15 15 16 16 15 15 15 15 16 17 19 20 20 21 22 22 21 21 21 20 18 18 20 19 19 19 21 23 23 23 25 25 23 23 24 25 25 24 27 30 29 29 31 31 32 34 34 34 35 36
21 22 23 20 18 20 20 18 16 15 16 18 20 19 19 21 22 22 22 21 19 19 18 18 19 20 20 20 20 20 19 17 16 16 16 14 13 14 14 14 14 13 13 14 14 15 17 18 19 21 21 19 19 19 19 19 20 21 21 20 20 21 23 23 24 25 24 23 23 23 24 25 25 27 29 29 30 32 32 33 35 34 35 37 37
18 18 18 18 18 18 17 15 15 14 15 16 18 18 18 20 21 21 22 21 19 19 19 20 21 20 20 19 17 17 17 16 17 20 21 19 16 16 16 15 13 13 15 17 16 16 18 18 18 19 20 21 21 23 24 25 25 21 18 18 17 19 22 23 22 23 23 21 21 22 25 27 26 28 30 30 31 33 33 34 35 35 37 38 38
18 18 17 17 18 17 15 14 14 14 14 16 17 18 18 19 19 20 20 19 17 18 19 20 21 20 19 17 16 19 20 19 18 20 23 22 19 17 16 14 13 14 16 16 15 15 17 18 17 17 18 19 21 23 23 23 22 18 14 15 17 18 20 19 18 20 21 20 20 22 26 28 26 27 30 31 31 32 33 35 36 36 36 37 38
18 17 16 16 16 14 13 12 13 14 15 14 14 16 17 17 17 18 17 15 15 16 17 18 19 19 19 19 22 24 25 23 23 24 24 22 18 16 15 14 13 15 15 13 12 13 14 15 16 16 17 17 18 18 18 17 17 16 15 17 18 19 20 19 18 20 21 21 21 21 24 27 27 26 28 29 30 32 33 34 34 33 32 34 37
17 15 17 19 16 12 10 10 12 14 14 13 13 15 15 15 15 16 14 14 15 15 15 17 19 18 17 18 22 24 22 22 24 25 23 20 17 15 15 14 15 15 13 11 11 11 11 13 14 15 16 17 17 17 17 17 18 18 19 20 20 20 21 22 22 20 17 17 18 20 22 26 27 26 26 24 21 23 27 30 30 30 30 32 35
Wind_Direction
235 239 248 257 267 273 278 280 284 289 291 292 295 298 299 305 311 313 315 313 310 304 298 297 295 289 286 284 280 276 274 274 274 272 271 271 261 266 279 288 287 276 259 248 247 237 223 216 216 224 228 226 224 221 218 221 225 227 226 223 222 223 226 227 226 224 224 224 225 226 227 229 230 233 237 238 241 243 245 249 252 255 256 254 254
240 241 248 259 269 274 275 275 278 277 285 295 296 300 302 302 308 312 312 310 306 299 298 302 300 294 287 283 280 277 275 273 272 268 264 264 252 254 269 277 279 280 269 242 236 232 224 223 225 228 232 229 227 228 225 224 225 227 227 226 223 222 224 227 228 227 226 226 227 228 229 230 232 235 238 240 242 243 246 249 251 255 258 259 258
244 245 254 264 269 271 270 274 278 269 275 294 295 299 302 301 300 304 307 304 300 295 298 303 304 300 292 285 281 278 276 274 271 267 261 257 250 245 258 267 270 272 269 248 226 221 222 227 230 230 232 230 228 230 230 228 229 229 227 227 226 224 223 225 228 230 229 229 228 228 230 231 234 236 239 242 244 245 246 248 251 255 258 261 261
244 248 257 264 265 268 270 273 280 278 275 279 289 299 299 295 294 299 301 294 293 296 300 304 304 304 299 294 289 283 280 277 275 271 262 255 253 245 244 255 262 261 260 252 229 216 221 227 232 235 236 234 232 233 232 230 231 232 230 229 229 228 227 226 226 228 230 230 230 229 230 232 234 235 238 241 244 246 247 248 250 253 256 260 261
242 248 256 264 263 266 272 271 271 275 275 277 288 296 293 293 290 292 294 289 295 302 306 306 305 305 303 302 299 292 287 283 280 275 266 257 253 249 241 242 249 252 257 255 244 228 221 223 230 236 238 237 235 234 234 232 231 232 232 231 232 231 230 228 227 228 229 230 231 233 233 234 235 237 238 240 242 245 247 249 250 251 254 257 260
238 248 254 261 263 267 270 263 261 267 273 279 283 284 285 285 277 278 287 290 299 307 309 306 304 303 301 303 301 297 293 289 284 276 270 265 257 251 247 240 237 244 251 250 249 242 231 222 224 230 236 240 237 234 234 233 233 233 233 234 235 234 233 231 229 228 231 232 233 235 237 239 239 239 240 242 243 244 246 247 249 252 254 256 258
246 251 255 259 263 268 264 251 260 271 267 267 269 269 272 270 265 281 295 298 305 307 304 302 300 297 298 298 295 295 294 291 289 281 272 266 260 253 249 244 238 237 238 241 245 241 233 226 224 226 235 244 244 242 239 234 234 236 236 237 237 235 234 234 234 232 232 234 234 235 238 241 243 242 243 244 245 245 246 247 248 250 253 256 257
268 264 257 255 259 261 255 249 266 274 256 262 271 267 267 271 277 295 306 308 308 305 301 298 296 294 293 290 288 290 289 288 286 281 274 264 259 254 247 243 239 236 236 239 242 234 227 224 223 222 228 238 241 244 245 239 237 237 238 238 238 238 235 234 236 236 235 235 237 238 238 241 244 244 244 245 246 247 247 248 249 249 251 254 256
282 282 264 250 254 257 250 246 263 270 263 277 290 284 280 290 299 305 309 308 302 299 298 296 297 298 294 288 286 283 279 282 283 279 275 266 259 252 246 241 234 234 236 236 238 236 234 233 232 229 228 233 239 244 246 243 242 242 239 237 238 240 237 236 239 243 246 245 245 247 246 246 245 245 246 246 247 248 248 249 249 250 250 251 253
275 278 270 256 251 257 253 246 260 280 292 296 296 295 297 305 312 310 309 302 296 296 298 300 302 299 293 288 282 276 273 274 276 276 273 267 259 253 242 233 229 229 230 229 234 236 237 246 252 246 240 241 245 245 243 243 247 249 247 244 243 243 242 245 249 255 260 258 256 257 256 253 251 249 248 247 247 248 249 249 249 250 251 251 251
258 259 261 254 249 255 260 259 278 304 310 300 293 298 309 313 310 304 295 286 288 294 297 301 303 298 294 293 280 269 269 268 269 271 273 267 250 242 222 212 216 215 222 225 231 234 235 247 256 249 247 254 257 252 248 249 252 253 253 251 252 255 258 263 267 265 262 256 251 251 250 249 249 248 247 246 246 246 248 249 249 249 250 251 251
246 250 245 242 250 256 259 269 302 303 299 300 302 309 315 311 297 289 285 280 284 290 300 308 306 303 299 292 276 258 248 251 269 270 270 261 213 191 165 160 160 166 188 208 225 236 237 247 252 247 246 260 273 271 261 258 260 264 266 267 271 280 285 281 271 261 252 247 243 243 245 246 246 246 247 246 245 246 248 249 250 251 250 250 251
241 247 241 236 244 242 234 247 267 269 284 300 305 309 306 294 279 278 282 293 299 299 323 319 300 310 321 292 199 196 193 171 140 83 97 127 133 122 126 132 124 132 129 137 204 235 238 250 263 269 260 263 281 292 291 284 277 276 278 282 290 293 285 270 261 255 249 247 246 247 249 248 247 247 247 247 246 247 248 248 250 251 251 251 251
242 246 239 227 226 224 218 228 243 253 284 299 299 297 291 281 279 279 280 303 316 322 347 329 308 336 338 292 150 150 169 180 23 64 85 106 113 98 77 62 47 17 360 56 360 311 303 314 302 301 303 295 289 295 312 316 298 291 295 301 302 284 272 262 259 258 256 255 253 252 251 250 249 248 248 248 249 249 248 246 246 248 250 251 251
241 236 229 222 219 215 214 224 231 237 281 293 287 278 273 269 273 283 285 273 290 341 358 348 337 338 318 268 212 157 168 203 315 60 91 102 100 81 53 40 44 24 360 358 353 2 4 10 8 348 342 338 332 320 320 319 309 313 321 335 336 292 278 271 265 262 260 259 255 253 253 254 252 251 251 251 250 250 248 247 246 246 248 249 250
236 227 221 221 216 209 214 219 216 224 266 275 264 257 254 251 258 278 298 293 306 38 10 1 354 340 323 307 280 240 150 77 16 58 100 106 85 64 48 45 49 33 15 14 8 16 27 32 33 23 8 1 4 359 353 348 341 349 354 353 358 306 283 276 267 263 261 258 257 257 258 259 257 254 253 253 251 249 249 249 248 247 248 248 248
233 226 219 217 211 207 212 211 211 222 237 241 244 256 255 250 252 250 293 317 346 24 24 14 1 349 346 338 295 285 23 14 12 16 23 49 68 62 58 58 53 40 22 23 23 28 35 39 42 43 37 30 25 22 27 24 20 29 23 354 338 297 273 267 262 261 260 257 257 260 261 262 261 260 258 257 256 253 250 250 249 248 248 249 249
231 223 213 210 208 204 204 206 213 214 210 218 228 247 249 245 245 239 257 335 345 341 32 52 7 360 4 356 341 349 355 341 333 13 68 75 87 89 86 73 61 60 47 40 41 43 46 47 52 54 53 51 44 43 43 35 35 37 22 4 342 312 279 266 261 257 255 254 256 259 260 261 262 262 262 261 260 257 252 249 249 249 249 249 250
227 220 212 210 208 206 204 205 210 202 195 209 221 233 237 235 230 220 221 167 191 308 343 18 9 20 14 1 350 354 358 343 333 347 82 92 76 93 100 94 90 87 73 65 63 65 64 59 67 69 62 61 54 51 49 41 44 36 14 8 1 339 313 284 269 260 256 254 255 258 258 259 261 262 263 262 261 259 256 253 251 251 249 249 249
222 217 211 211 211 209 204 201 202 197 195 205 213 222 226 225 221 205 209 205 197 250 331 331 326 37 34 5 360 3 5 357 343 332 323 36 119 117 108 108 111 94 85 87 81 80 84 77 77 76 67 63 56 52 51 43 47 37 8 6 6 352 335 317 297 277 268 262 259 260 259 260 261 261 261 261 261 259 257 256 255 254 252 251 251
216 212 210 210 206 202 200 200 201 198 198 204 205 213 218 216 216 210 210 210 208 218 237 297 318 16 55 26 8 349 344 350 330 311 316 322 253 132 113 150 136 90 91 108 105 104 101 92 88 83 68 57 48 44 43 39 43 29 7 6 7 356 348 336 322 305 289 279 271 267 265 263 262 262 261 260 261 261 259 258 258 258 257 256 256
212 210 206 203 198 199 202 204 203 201 201 206 208 212 216 216 219 218 213 213 210 210 224 247 301 360 70 32 319 274 262 285 282 299 321 310 294 294 267 215 212 138 134 122 144 161 139 127 134 92 67 43 36 29 19 20 22 6 360 6 6 360 358 352 340 327 312 299 289 281 275 271 268 265 263 261 260 262 263 262 261 260 258 256 255
214 208 201 197 198 203 207 206 205 203 202 207 215 220 218 216 219 217 208 210 210 203 210 214 205 207 199 199 252 290 309 303 308 329 316 298 299 299 299 322 314 243 181 207 232 217 211 209 216 206 130 18 27 19 7 2 344 340 348 355 357 359 2 359 353 344 334 321 310 301 291 284 279 274 271 267 263 261 262 262 262 261 258 254 252
211 202 200 201 202 204 207 207 205 204 204 205 214 223 222 216 217 218 208 204 207 207 212 214 209 213 213 211 226 246 249 257 282 272 274 295 306 297 299 315 299 262 218 238 235 227 232 230 227 229 228 254 313 356 354 349 326 329 338 338 341 354 358 355 354 354 348 340 329 320 312 303 294 287 283 279 273 267 264 262 261 260 260 257 255
205 203 206 205 203 203 205 206 205 204 204 205 212 218 218 217 219 219 212 207 210 215 225 228 223 225 229 226 232 240 233 224 229 234 245 261 263 279 299 306 292 286 284 274 260 250 245 234 228 237 238 245 260 297 326 329 315 319 329 324 322 340 350 350 355 358 355 349 342 334 326 320 312 304 297 291 286 279 273 268 263 260 258 257 257
206 207 208 206 205 207 207 207 206 203 202 206 213 214 213 215 219 222 219 218 221 226 235 239 235 236 239 240 244 250 249 234 227 239 254 259 263 285 305 302 293 291 287 277 272 271 262 239 231 243 240 240 260 278 295 309 304 307 324 322 306 313 327 340 353 358 358 356 353 350 341 333 325 318 311 303 297 289 283 276 269 264 259 256 256
211 208 207 205 205 207 208 209 206 202 204 208 210 210 210 211 216 221 224 223 225 230 239 243 242 240 238 243 251 255 260 259 249 251 262 271 281 295 301 295 293 294 293 288 279 274 272 257 245 248 246 248 264 276 285 298 296 301 319 319 288 289 301 314 332 340 345 350 353 357 356 349 340 329 319 310 303 298 291 284 276 269 263 259 256
209 205 203 203 205 207 209 211 207 204 207 208 208 208 206 210 214 218 223 224 224 229 236 242 245 246 243 243 250 257 262 266 266 266 269 273 280 286 286 284 289 294 295 295 292 287 284 276 264 255 248 254 268 278 284 291 287 292 307 302 281 282 284 291 305 311 317 327 335 342 346 348 345 337 328 317 307 301 296 291 284 276 268 262 258
207 204 203 203 205 206 210 213 210 209 210 207 208 206 204 210 214 215 219 220 224 232 238 242 245 247 248 247 250 257 262 263 266 269 266 266 270 274 275 277 282 288 290 292 294 295 293 289 283 276 264 259 269 279 283 286 287 290 292 284 281 281 275 280 288 291 296 305 314 323 329 336 340 338 333 326 316 307 299 294 290 284 275 267 261
206 204 203 203 205 208 213 216 213 211 212 210 208 206 207 213 214 215 218 219 226 233 238 245 250 249 250 252 254 258 260 260 265 267 262 258 260 266 270 273 276 279 284 290 290 289 291 292 289 287 283 278 281 285 284 284 289 291 288 281 279 277 275 280 282 280 283 292 301 310 317 324 331 334 333 331 327 318 308 300 293 289 283 275 266
205 203 203 205 208 210 213 217 217 213 211 211 211 208 209 217 218 218 218 217 224 233 238 245 251 253 254 255 257 259 260 262 265 265 261 257 260 265 268 269 270 272 277 284 286 283 286 291 292 291 289 288 289 288 284 282 286 288 286 284 282 278 279 285 286 283 283 287 294 302 309 315 322 327 328 330 332 329 322 311 301 294 288 283 276
203 202 205 208 209 211 215 218 218 215 212 213 213 211 213 219 221 222 218 216 225 236 242 247 251 256 260 262 262 261 260 261 262 261 258 258 262 267 269 270 270 268 270 275 280 282 284 287 291 292 290 290 290 288 287 287 287 286 283 285 287 286 284 284 285 284 286 289 292 297 303 307 312 317 319 321 327 332 331 326 316 304 295 288 283
203 201 204 208 209 212 215 218 218 216 215 215 214 213 215 218 219 222 222 223 232 240 245 251 254 257 261 264 265 264 261 259 259 259 259 260 263 265 267 270 271 269 268 272 277 282 284 285 287 289 291 292 291 289 290 291 291 289 286 286 288 287 284 281 279 279 282 285 289 294 300 303 305 308 308 310 317 324 329 330 328 320 309 296 287
206 203 201 206 210 211 212 214 215 215 215 217 216 214 216 219 221 225 227 229 236 243 248 253 255 257 259 260 263 265 264 260 257 258 261 263 265 265 265 268 271 272 269 272 276 280 283 284 284 286 289 291 292 293 295 295 295 294 291 289 288 286 284 284 282 281 280 281 285 291 297 300 301 302 302 302 306 314 321 325 327 326 322 313 299
211 211 204 204 210 211 210 211 211 212 216 217 217 217 219 222 225 229 233 235 240 246 251 255 258 260 261 261 263 265 266 263 258 256 259 262 261 261 264 268 271 273 271 270 272 277 282 284 282 282 287 290 291 295 297 295 295 294 290 289 289 288 287 286 285 284 282 282 284 288 294 297 297 297 298 299 300 305 313 318 321 322 322 322 316
211 215 211 207 209 209 208 210 210 212 216 218 219 220 221 225 230 234 238 240 245 251 255 259 261 262 263 262 263 263 264 264 260 257 256 257 256 255 260 264 265 268 270 268 267 271 278 283 282 283 286 288 289 292 294 294 294 290 286 287 289 289 288 288 286 285 284 284 286 290 294 297 296 295 298 298 298 300 305 310 314 316 316 318 319
212 220 221 217 214 214 215 214 212 213 217 219 221 222 225 229 233 238 242 246 250 253 257 261 263 263 262 261 262 261 260 261 260 258 255 253 254 254 256 259 263 267 269 268 268 269 274 280 284 287 288 288 287 287 290 293 293 290 286 287 289 289 288 288 287 287 288 289 290 291 294 296 295 295 297 297 296 297 298 301 306 310 310 312 314
214 217 221 223 222 223 224 220 214 215 219 221 223 224 228 232 236 241 246 249 253 256 260 262 262 262 260 259 258 256 255 257 258 257 255 252 252 254 256 259 264 268 269 270 271 271 272 277 282 286 289 289 288 287 287 288 290 291 290 289 289 287 286 288 288 289 291 291 290 289 289 290 291 290 290 291 293 294 293 294 298 302 306 307 308
212 213 215 221 225 226 227 224 220 218 218 222 225 227 230 235 240 244 248 252 255 258 259 260 261 261 259 255 253 250 248 251 254 255 256 254 252 253 255 260 265 269 272 274 276 274 275 278 280 283 286 286 286 285 285 286 286 285 285 287 291 290 288 287 287 288 289 289 290 290 288 288 288 289 289 290 291 291 290 290 292 295 299 301 301
212 213 212 215 220 222 223 224 224 221 220 223 227 229 234 238 241 245 250 254 256 257 257 257 258 259 257 253 251 248 247 248 249 251 253 253 254 255 259 264 269 273 276 279 282 281 280 281 282 283 284 284 283 283 284 286 286 285 287 292 293 291 288 286 284 284 285 286 289 291 290 290 290 290 291 290 289 289 289 289 288 288 292 294 296
211 212 209 210 213 216 220 225 228 227 224 226 229 231 233 236 241 248 252 253 254 254 254 255 255 256 254 253 252 250 248 245 246 250 254 255 257 260 264 269 272 276 278 280 284 287 286 285 284 285 285 284 283 284 286 288 289 291 294 294 290 288 290 289 286 284 283 286 288 287 287 288 288 288 287 287 286 286 286 285 283 283 285 288 292
208 209 207 205 206 212 219 225 230 231 228 229 233 233 233 236 243 251 254 253 253 252 253 255 257 257 254 253 254 252 248 247 250 256 260 260 259 261 265 269 271 273 275 276 280 285 286 287 288 289 288 286 286 288 289 290 292 293 294 293 291 293 295 293 289 287 287 288 288 286 284 285 285 284 282 281 281 282 281 278 277 276 275 279 288
205 209 209 206 207 211 215 220 227 231 232 233 234 237 240 244 249 253 255 254 253 252 253 255 256 259 258 257 257 256 252 252 255 259 261 262 263 265 268 270 270 267 265 268 275 282 285 287 289 289 288 286 287 288 289 291 292 293 294 294 294 295 295 294 292 291 292 292 291 289 287 284 282 280 279 279 278 278 277 275 274 274 274 278 285
203 206 208 210 213 213 212 215 220 226 232 235 237 241 245 246 249 252 252 252 255 255 254 256 258 260 261 260 261 261 256 253 254 257 262 265 269 273 274 274 273 266 258 258 265 274 281 286 288 286 285 286 287 287 288 291 295 295 295 293 293 293 293 291 291 292 294 295 293 290 287 285 282 280 280 280 280 277 276 276 277 276 276 278 283
202 204 209 214 219 219 217 218 218 220 228 234 239 246 248 245 246 249 248 248 252 255 255 259 261 260 262 262 263 263 260 256 255 257 260 261 265 271 274 276 277 271 263 260 262 267 273 276 278 279 280 283 285 286 287 291 294 294 293 292 292 293 292 290 291 292 294 294 291 288 286 285 284 282 282 282 281 278 277 278 280 279 276 277 280
197 203 209 213 219 223 223 222 220 221 227 233 241 251 253 246 244 248 249 246 248 254 257 259 260 261 263 263 262 264 264 261 258 257 257 256 258 262 264 267 270 270 267 264 265 270 270 267 267 271 276 279 281 282 284 287 290 292 292 293 294 294 292 290 290 289 286 284 281 280 281 283 284 284 282 282 283 279 276 278 280 279 277 276 279
193 200 203 205 215 223 221 217 218 222 228 235 245 256 259 250 246 249 250 246 247 254 256 257 259 261 262 262 264 267 267 264 260 257 254 254 258 258 257 258 260 260 261 261 263 267 266 263 264 269 272 273 274 276 279 284 288 291 292 291 290 289 287 286 284 280 277 275 274 273 276 280 284 284 283 283 283 279 277 280 281 280 278 278 280
192 198 199 203 215 221 215 212 218 227 234 239 249 261 264 255 250 251 249 246 248 253 256 259 262 262 263 263 262 263 267 269 264 259 257 257 257 257 256 255 255 260 265 266 267 266 265 269 274 274 271 269 267 269 275 280 284 288 290 289 284 280 279 281 281 279 279 280 279 277 277 280 284 286 285 286 284 280 279 282 282 281 280 279 280
195 196 198 205 214 214 211 214 223 235 243 244 251 263 266 258 252 250 246 244 246 251 257 263 265 263 262 257 252 257 266 267 262 261 266 266 260 255 255 254 252 259 265 268 271 273 273 279 286 285 280 278 275 275 277 279 281 283 281 279 278 276 277 281 282 283 286 288 287 284 282 284 288 289 287 286 284 281 281 283 282 281 280 279 281
195 192 194 208 214 207 208 221 232 243 251 251 253 262 265 260 254 248 242 242 247 251 259 264 265 266 263 257 258 264 266 262 260 265 269 266 258 253 255 257 258 261 266 269 271 275 278 282 288 290 288 288 289 289 285 283 286 284 270 265 271 276 280 285 289 290 290 289 289 288 285 287 290 289 287 288 285 282 283 284 282 280 279 280 282
197 192 196 209 213 204 206 224 238 249 259 264 264 264 264 264 257 245 237 243 251 256 263 266 265 266 264 261 266 271 269 265 266 269 268 261 254 252 255 259 263 265 268 272 274 277 278 279 284 288 287 287 289 288 285 284 289 284 268 259 265 273 281 287 290 291 291 288 291 293 289 290 292 290 289 291 289 286 287 285 282 281 281 282 284